Baker, MT

6:43 AM MST on February 08, 2016 (GMT -0700)
Baker Municipal

Weather History for KBHK - August, 2014

Change the Weather History Date:

Sunday, August 31, 2014

  Actual Average Record
Temperature  
Mean Temperature 64 °F -  
Max Temperature 73 °F 79 °F 97 °F (2007)
Min Temperature 54 °F 56 °F 46 °F (2005)
Degree Days  
Heating Degree Days 2    
Growing Degree Days 14 (Base 50)    
Moisture  
Dew Point 53 °F    
Average Humidity 79    
Maximum Humidity 97    
Minimum Humidity 49    
Precipitation  
Precipitation 0.09 in - - ()
Sea Level Pressure  
Sea Level Pressure 29.74 in    
Wind  
Wind Speed 7 mph (West)    
Max Wind Speed 32 mph    
Max Gust Speed 38 mph    
Visibility 9 miles    
Events Rain , Thunderstorm    
Averages and records for this station are not official NWS values.
T = Trace of Precipitation, MM = Missing Value Source: NWS Daily Summary

Daily Weather History Graph

Daily Weather History Graph

Search for Another Location

Airport or City:

Trip Planner

Search our weather history database for the weather conditions in past years. The results will help you decide how hot, cold, wet, or windy it might be!

Date:

Astronomy

Aug. 31, 2014 Rise Set
Actual Time 6:16 AM MDT 7:37 PM MDT
Civil Twilight 5:44 AM MDT 8:08 PM MDT
Nautical Twilight 5:07 AM MDT 8:46 PM MDT
Astronomical Twilight 4:26 AM MDT 9:26 PM MDT
Moon 12:26 PM MDT (8/31) 10:32 PM MDT (8/31)
Length of Visible Light 14h 23m
Length of Day
13h 21m
Waxing Crescent, 32% of the Moon is Illuminated
Aug 31
Waxing Crescent
Sep 2
First Quarter
Sep 8
Full
Sep 15
Last Quarter
Sep 24
New

Hourly Weather History & Observations

Time (MDT) Temp. Dew Point Humidity Pressure Visibility Wind Dir Wind Speed Gust Speed Precip Events Conditions
12:51 AM 59.0 °F 55.9 °F 90% 29.70 in 10.0 mi WSW 8.1 mph - N/A   Clear
1:51 AM 57.9 °F 55.9 °F 93% 29.69 in 10.0 mi West 6.9 mph - N/A   Clear
2:51 AM 57.9 °F 55.9 °F 93% 29.67 in 10.0 mi West 6.9 mph - N/A   Partly Cloudy
3:51 AM 55.9 °F 55.0 °F 97% 29.68 in 10.0 mi WNW 4.6 mph - N/A   Clear
4:42 AM 55.0 °F 54.0 °F 96% 29.72 in 2.5 mi NNE 3.5 mph - N/A   Partly Cloudy
4:51 AM 54.0 °F 53.1 °F 97% 29.68 in 1.8 mi SW 4.6 mph - N/A   Partly Cloudy
5:14 AM 54.0 °F 53.1 °F 97% 29.72 in 4.0 mi NW 3.5 mph - N/A   Partly Cloudy
5:51 AM 54.0 °F 52.0 °F 93% 29.69 in 10.0 mi Calm Calm - N/A   Partly Cloudy
6:51 AM 55.9 °F 54.0 °F 93% 29.71 in 10.0 mi Calm Calm - N/A   Overcast
7:51 AM 57.9 °F 55.9 °F 93% 29.73 in 10.0 mi Calm Calm - 0.00 in   Overcast
9:51 AM 62.1 °F 57.0 °F 84% 29.74 in 10.0 mi West 6.9 mph - N/A   Mostly Cloudy
10:51 AM 66.0 °F 55.9 °F 70% 29.74 in 10.0 mi Variable 5.8 mph - N/A   Clear
11:51 AM 68.0 °F 57.0 °F 68% 29.74 in 10.0 mi WNW 8.1 mph - N/A   Clear
12:51 PM 66.9 °F 55.9 °F 68% 29.73 in 10.0 mi WNW 4.6 mph - N/A   Clear
1:51 PM 72.0 °F 55.9 °F 57% 29.73 in 10.0 mi SW 6.9 mph - N/A   Partly Cloudy
2:51 PM 73.0 °F 55.0 °F 53% 29.70 in 10.0 mi West 6.9 mph - N/A   Scattered Clouds
3:44 PM 72.0 °F 52.0 °F 49% 29.76 in 10.0 mi WNW 13.8 mph - N/A Thunderstorm Mostly Cloudy
3:51 PM 71.1 °F 55.0 °F 57% 29.71 in 10.0 mi NW 9.2 mph - 0.00 in Rain , Thunderstorm Light Rain
4:32 PM 59.0 °F 46.9 °F 64% 29.82 in 10.0 mi NW 32.2 mph 38.0 mph 0.01 in Rain , Thunderstorm Light Thunderstorms and Rain
4:51 PM 57.0 °F 48.0 °F 72% 29.79 in 7.0 mi WNW 15.0 mph - 0.06 in Rain , Thunderstorm Light Rain
5:30 PM 59.0 °F 50.0 °F 72% 29.80 in 10.0 mi Variable 3.5 mph - 0.03 in Rain Light Rain
5:51 PM 61.0 °F 53.1 °F 75% 29.77 in 10.0 mi ESE 6.9 mph - 0.03 in   Mostly Cloudy
6:51 PM 60.1 °F 53.1 °F 78% 29.79 in 10.0 mi South 10.4 mph - N/A   Partly Cloudy
7:51 PM 55.0 °F 51.1 °F 86% 29.80 in 10.0 mi South 11.5 mph - N/A   Clear
8:51 PM 54.0 °F 48.9 °F 83% 29.82 in 10.0 mi Variable 4.6 mph - N/A   Clear
9:51 PM 54.0 °F 46.9 °F 77% 29.82 in 10.0 mi SSW 11.5 mph - N/A   Clear
10:51 PM 54.0 °F 46.9 °F 77% 29.81 in 10.0 mi SSW 11.5 mph - N/A   Clear
11:51 PM 54.0 °F 46.9 °F 77% 29.80 in 10.0 mi WSW 4.6 mph - N/A   Clear